IRIDIUM 106 1 41917U 17003A 25340.95298845 .00000006 00000+0 -49867-5 0 9992 2 41917 86.3992 168.8700 0002033 101.7117 258.4307 14.34218707465659 IRIDIUM 103 1 41918U 17003B 25340.94029802 .00000397 00000+0 13453-3 0 9999 2 41918 86.3988 168.7759 0001577 89.0319 271.1058 14.34219614465677 IRIDIUM 109 1 41919U 17003C 25340.94666467 .00000073 00000+0 18954-4 0 9997 2 41919 86.3989 168.8296 0001875 89.1773 270.9638 14.34218331465645 IRIDIUM 102 1 41920U 17003D 25340.91492813 .00000441 00000+0 15053-3 0 9993 2 41920 86.3988 168.7707 0002042 85.8413 274.3016 14.34216382465724 IRIDIUM 105 1 41921U 17003E 25340.95543633 .00000576 00000+0 19858-3 0 9991 2 41921 86.3973 137.2475 0001861 92.6139 267.5270 14.34217857467581 IRIDIUM 104 1 41922U 17003F 25340.92761684 .00000152 00000+0 47341-4 0 9996 2 41922 86.3989 168.8049 0001755 80.3290 279.8104 14.34218953465713 IRIDIUM 114 1 41923U 17003G 25340.93394540 .00000104 00000+0 30097-4 0 9998 2 41923 86.3989 168.7862 0001796 86.1754 273.9647 14.34217471465698 IRIDIUM 108 1 41924U 17003H 25340.89248107 .00000018 00000+0 -53393-6 0 9992 2 41924 86.3968 137.1641 0002132 91.2393 268.9047 14.34217872467541 IRIDIUM 112 1 41925U 17003J 25340.92127198 -.00000006 00000+0 -91424-5 0 9997 2 41925 86.3989 168.6425 0001829 83.6800 276.4604 14.34217292465710 IRIDIUM 111 1 41926U 17003K 25340.90859011 -.00000064 00000+0 -29789-4 0 9990 2 41926 86.3991 168.7139 0001797 91.0043 269.1358 14.34218222465699 IRIDIUM 113 1 42803U 17039A 25340.88855359 .00000009 00000+0 -39407-5 0 9999 2 42803 86.3983 42.5416 0001969 94.1456 265.9965 14.34217908443622 IRIDIUM 123 1 42804U 17039B 25340.79049461 .00000115 00000+0 34041-4 0 9994 2 42804 86.3968 74.0664 0001918 105.2923 254.8485 14.34218839442377 IRIDIUM 120 1 42805U 17039C 25340.88221168 .00000348 00000+0 11704-3 0 9999 2 42805 86.3957 42.3523 0002362 104.6298 255.5160 14.34216140443619 IRIDIUM 115 1 42806U 17039D 25340.93348469 .00000679 00000+0 19593-3 0 9991 2 42806 86.4506 42.4323 0002243 109.2670 250.8774 14.43279767446530 IRIDIUM 118 1 42807U 17039E 25340.75243586 .00000596 00000+0 20574-3 0 9995 2 42807 86.3970 74.0813 0001915 95.5895 264.5519 14.34224059442361 IRIDIUM 117 1 42808U 17039F 25340.77146706 .00000156 00000+0 48736-4 0 9997 2 42808 86.3968 74.0327 0001909 101.3333 258.8077 14.34219066442395 IRIDIUM 126 1 42809U 17039G 25340.79683538 .00000186 00000+0 59528-4 0 9993 2 42809 86.3967 74.0701 0001857 97.4831 262.6576 14.34217622442372 IRIDIUM 124 1 42810U 17039H 25340.79798471 .00000697 00000+0 20106-3 0 9994 2 42810 86.4491 10.7919 0002155 97.5865 262.5581 14.43284994447360 IRIDIUM 128 1 42811U 17039J 25340.85734223 .00000681 00000+0 23603-3 0 9995 2 42811 86.3962 105.5783 0002242 102.9653 257.1794 14.34221503442412 IRIDIUM 121 1 42812U 17039K 25340.74609924 .00000551 00000+0 18959-3 0 9997 2 42812 86.3976 74.1173 0002180 95.4908 264.6537 14.34216312442243 IRIDIUM 133 1 42955U 17061A 25340.88905862 .00000031 00000+0 40446-5 0 9996 2 42955 86.3960 105.6775 0002005 97.4417 262.7007 14.34217613427211 IRIDIUM 100 1 42956U 17061B 25340.88271132 .00000551 00000+0 18954-3 0 9997 2 42956 86.3960 105.6038 0001928 97.4098 262.7317 14.34219900427217 IRIDIUM 122 1 42957U 17061C 25340.85100284 .00000052 00000+0 11595-4 0 9995 2 42957 86.3960 105.6170 0001906 96.7480 263.3933 14.34217508427211 IRIDIUM 129 1 42958U 17061D 25340.87637133 .00000204 00000+0 65839-4 0 9995 2 42958 86.3961 105.6710 0001897 84.2631 275.8781 14.34218657427239 IRIDIUM 119 1 42959U 17061E 25340.84465970 .00000584 00000+0 20141-3 0 9998 2 42959 86.3962 105.6793 0001745 92.0248 268.1147 14.34221744427248 IRIDIUM 107 1 42960U 17061F 25340.86368739 .00000016 00000+0 -13021-5 0 9999 2 42960 86.3962 105.6912 0001734 107.2468 252.8918 14.34217723427253 IRIDIUM 132 1 42961U 17061G 25340.87002970 .00000118 00000+0 35084-4 0 9997 2 42961 86.3962 105.6697 0001932 98.3442 261.7973 14.34218487427254 IRIDIUM 136 1 42962U 17061H 25340.90174296 .00000001 00000+0 -66583-5 0 9994 2 42962 86.3962 105.6622 0001691 93.8470 266.2919 14.34217523427278 IRIDIUM 139 1 42963U 17061J 25340.90808670 .00000464 00000+0 15865-3 0 9992 2 42963 86.3964 105.7184 0001944 99.3454 260.7962 14.34216549427284 IRIDIUM 125 1 42964U 17061K 25340.89539473 .00000543 00000+0 18695-3 0 9995 2 42964 86.3966 105.7812 0001407 103.4577 256.6776 14.34219460427295 IRIDIUM 135 1 43070U 17083A 25340.66021987 .00000285 00000+0 94722-4 0 9998 2 43070 86.3974 42.4858 0002109 93.9464 266.1973 14.34219149416554 IRIDIUM 138 1 43071U 17083B 25340.89489737 .00000400 00000+0 13595-3 0 9992 2 43071 86.3989 42.0535 0001775 87.3262 272.8137 14.34217704416573 IRIDIUM 116 1 43072U 17083C 25340.93295320 .00000358 00000+0 12073-3 0 9993 2 43072 86.3967 42.3600 0002462 100.4877 259.6596 14.34217601416612 IRIDIUM 130 1 43073U 17083D 25340.90123570 .00000444 00000+0 15144-3 0 9996 2 43073 86.3976 42.6293 0002070 104.4972 255.6454 14.34214198416559 IRIDIUM 151 1 43074U 17083E 25340.87586825 .00000383 00000+0 12956-3 0 9999 2 43074 86.3973 42.4372 0002000 93.9724 266.1700 14.34217556416577 IRIDIUM 134 1 43075U 17083F 25340.91391461 .00000494 00000+0 16941-3 0 9996 2 43075 86.3973 42.4269 0002186 102.4862 257.6579 14.34223333416543 IRIDIUM 137 1 43076U 17083G 25340.92661168 .00000402 00000+0 13652-3 0 9997 2 43076 86.3970 42.5110 0002685 94.6964 265.4539 14.34217634416614 IRIDIUM 141 1 43077U 17083H 25340.92026660 .00000121 00000+0 36137-4 0 9992 2 43077 86.3972 42.3546 0002030 95.4717 264.6710 14.34218844416613 IRIDIUM 153 1 43078U 17083J 25340.59338157 .00000549 00000+0 18883-3 0 9994 2 43078 86.3977 10.9823 0001824 91.9591 268.1813 14.34221132417673 IRIDIUM 131 1 43079U 17083K 25340.90758275 .00000046 00000+0 92773-5 0 9991 2 43079 86.3976 42.5331 0002055 94.2252 265.9179 14.34217896416542 IRIDIUM 144 1 43249U 18030A 25340.80902101 .00000352 00000+0 11870-3 0 9998 2 43249 86.3961 10.8254 0002312 96.7414 263.4045 14.34217017402567 IRIDIUM 149 1 43250U 18030B 25340.81536132 .00000284 00000+0 94522-4 0 9998 2 43250 86.3969 10.7923 0002133 94.4207 265.7233 14.34216761402586 IRIDIUM 157 1 43251U 18030C 25340.83438819 .00000244 00000+0 79933-4 0 9999 2 43251 86.3973 10.8330 0002256 88.7860 271.3594 14.34219967402564 IRIDIUM 140 1 43252U 18030D 25340.64411505 .00000342 00000+0 11491-3 0 9995 2 43252 86.3964 10.9256 0002462 86.7324 273.4154 14.34212999402591 IRIDIUM 145 1 43253U 18030E 25340.84073235 .00000136 00000+0 41417-4 0 9995 2 43253 86.3975 10.8162 0002444 101.2369 258.9102 14.34218958402559 IRIDIUM 146 1 43254U 18030F 25340.82170490 .00000072 00000+0 18718-4 0 9992 2 43254 86.3974 10.8371 0002253 97.2168 262.9284 14.34218399402566 IRIDIUM 148 1 43255U 18030G 25340.78999203 .00000402 00000+0 13634-3 0 9997 2 43255 86.3975 10.8904 0002207 90.8657 269.2792 14.34217438402591 IRIDIUM 142 1 43256U 18030H 25340.82804859 .00000393 00000+0 13322-3 0 9998 2 43256 86.3972 10.7699 0002461 101.7920 258.3552 14.34216704402561 IRIDIUM 150 1 43257U 18030J 25340.79633214 .00000212 00000+0 68725-4 0 9998 2 43257 86.3975 10.8934 0002260 96.7393 263.4060 14.34220039402581 IRIDIUM 143 1 43258U 18030K 25340.84707390 .00000340 00000+0 11447-3 0 9992 2 43258 86.3977 10.9575 0002432 99.6015 260.5455 14.34220514402528 IRIDIUM 161 1 43478U 18047C 25340.91457019 .00000233 00000+0 63175-4 0 9999 2 43478 86.4509 168.8128 0001970 82.4931 277.6494 14.43277212397403 IRIDIUM 152 1 43479U 18047D 25340.88956272 .00000157 00000+0 48855-4 0 9994 2 43479 86.3983 168.6838 0001851 86.7289 273.4119 14.34218491394922 IRIDIUM 147 1 43480U 18047E 25340.96566995 .00000031 00000+0 39193-5 0 9991 2 43480 86.3985 168.6539 0002074 85.9464 274.1969 14.34217731394936 IRIDIUM 110 1 43481U 18047F 25340.90224326 .00000166 00000+0 52158-4 0 9999 2 43481 86.3988 168.7670 0001805 74.3700 285.7695 14.34218496394914 IRIDIUM 162 1 43482U 18047G 25340.90827201 .00000139 00000+0 35382-4 0 9991 2 43482 86.4508 168.7089 0001674 91.9158 268.2235 14.43282513397396 IRIDIUM 160 1 43569U 18061A 25340.91785118 .00000236 00000+0 77064-4 0 9995 2 43569 86.3973 137.1838 0001957 84.5469 275.5950 14.34217039385816 IRIDIUM 166 1 43570U 18061B 25340.94321547 .00000216 00000+0 70016-4 0 9990 2 43570 86.3969 137.1264 0002165 94.2383 265.9060 14.34219864385847 IRIDIUM 158 1 43571U 18061C 25340.91150573 .00000398 00000+0 13503-3 0 9995 2 43571 86.3972 137.1496 0001718 92.9516 267.1876 14.34216141385805 IRIDIUM 165 1 43572U 18061D 25340.93687559 .00000165 00000+0 51834-4 0 9999 2 43572 86.3971 137.1816 0002068 91.8332 268.3101 14.34219763385834 IRIDIUM 155 1 43573U 18061E 25340.96858938 .00000580 00000+0 19999-3 0 9990 2 43573 86.3967 137.0471 0001885 98.3048 261.8362 14.34219757385805 IRIDIUM 154 1 43574U 18061F 25340.94957999 .00000481 00000+0 16483-3 0 9991 2 43574 86.3970 137.1789 0002028 91.3867 268.7561 14.34217190385856 IRIDIUM 163 1 43575U 18061G 25340.93053867 .00000380 00000+0 12850-3 0 9994 2 43575 86.3971 137.1084 0001808 89.8028 270.3375 14.34219520385820 IRIDIUM 156 1 43576U 18061H 25340.90516415 -.00000006 00000+0 -90621-5 0 9996 2 43576 86.3970 137.1260 0001895 100.1945 259.9464 14.34218595385819 IRIDIUM 164 1 43577U 18061J 25340.95591522 .00000468 00000+0 16015-3 0 9997 2 43577 86.3972 137.1421 0002170 92.5550 267.5895 14.34222387385866 IRIDIUM 159 1 43578U 18061K 25340.92419027 .00000438 00000+0 14919-3 0 9992 2 43578 86.3976 137.0960 0001990 87.0690 273.0734 14.34219268385825 IRIDIUM 180 1 43922U 19002A 25340.85392201 .00000529 00000+0 18182-3 0 9994 2 43922 86.3966 74.0018 0002004 91.1350 269.0075 14.34216293361425 IRIDIUM 176 1 43923U 19002B 25340.81037262 .00001919 00000+0 30042-3 0 9997 2 43923 86.6088 73.9912 0002175 98.9892 261.1571 14.72261154370949 IRIDIUM 168 1 43924U 19002C 25340.84757872 .00000070 00000+0 18025-4 0 9992 2 43924 86.3972 74.0762 0001985 96.1034 264.0388 14.34218458361406 IRIDIUM 173 1 43925U 19002D 25340.83489079 .00000551 00000+0 18985-3 0 9991 2 43925 86.3965 73.9782 0001879 99.4776 260.6632 14.34216264361384 IRIDIUM 169 1 43926U 19002E 25340.86097997 .00000734 00000+0 23338-3 0 9990 2 43926 86.4217 105.6179 0001531 129.5293 230.6041 14.38613284362573 IRIDIUM 172 1 43927U 19002F 25340.82854990 .00000305 00000+0 10184-3 0 9990 2 43927 86.3965 73.9881 0001984 90.9953 269.1470 14.34215678361399 IRIDIUM 175 1 43928U 19002G 25340.80564204 .00001743 00000+0 27253-3 0 9997 2 43928 86.1506 16.7347 0003093 98.9151 261.2416 14.72244994370930 IRIDIUM 171 1 43929U 19002H 25340.80952482 .00000077 00000+0 20543-4 0 9992 2 43929 86.3974 74.2814 0002209 102.1985 257.9458 14.34217687361385 IRIDIUM 170 1 43930U 19002J 25340.81655881 .00002304 00000+0 36147-3 0 9999 2 43930 86.6090 73.9928 0002284 91.2439 268.9040 14.72242368370954 IRIDIUM 167 1 43931U 19002K 25340.80318117 .00000228 00000+0 74300-4 0 9994 2 43931 86.3966 74.0197 0002226 107.9942 252.1496 14.34216866361383 IRIDIUM 181 1 56726U 23068S 25340.92538226 .00000513 00000+0 14633-3 0 9994 2 56726 86.4509 137.1539 0002604 88.1609 271.9890 14.43316837134704 IRIDIUM 177 1 56727U 23068T 25340.92842317 .00002809 00000+0 36614-3 0 9997 2 56727 86.1971 60.0899 0002329 85.7948 274.3539 14.80232669137926 IRIDIUM 174 1 56728U 23068U 25340.80419793 .00001872 00000+0 29302-3 0 9998 2 56728 86.6084 74.1265 0002252 87.6700 272.4775 14.72249202137712 IRIDIUM 178 1 56729U 23068V 25340.84990294 .00002320 00000+0 30203-3 0 9994 2 56729 86.6536 105.7596 0002359 101.0797 259.0690 14.80219556137915 IRIDIUM 179 1 56730U 23068W 25340.91212196 .00002700 00000+0 35200-3 0 9996 2 56730 86.6779 114.1379 0002496 93.8909 266.2598 14.80218863137922